| time (UTC) | temp F | wind direction | speed MPH | gust MPH | rain 1hr in | rain 24hr in | rain mn in | humidity % | barometer mb |
| 20260510160304 | 41 | 158 | 0.0 | 0.0 | 0.00 | 0.02 | 0.00 | 96 | 995.0 |
| 20260510155803 | 40 | 158 | 0.0 | 0.0 | 0.00 | 0.02 | 0.00 | 96 | 995.0 |
| 20260510155306 | 40 | 158 | 0.0 | 0.0 | 0.00 | 0.02 | 0.00 | 96 | 995.0 |
| 20260510154804 | 40 | 158 | 0.0 | 0.0 | 0.00 | 0.02 | 0.00 | 96 | 995.0 |
| 20260510154303 | 40 | 158 | 0.0 | 0.0 | 0.00 | 0.02 | 0.00 | 96 | 995.0 |
| 20260510153804 | 40 | 158 | 0.0 | 0.0 | 0.00 | 0.02 | 0.00 | 96 | 995.0 |
| 20260510153304 | 40 | 158 | 0.0 | 0.0 | 0.00 | 0.02 | 0.00 | 96 | 995.0 |
| 20260510152804 | 40 | 158 | 0.0 | 0.0 | 0.00 | 0.02 | 0.00 | 96 | 995.0 |
| 20260510152307 | 40 | 158 | 0.0 | 0.0 | 0.00 | 0.02 | 0.00 | 96 | 995.0 |
| 20260510151804 | 40 | 158 | 0.0 | 0.0 | 0.00 | 0.02 | 0.00 | 96 | 994.9 |
| 20260510151304 | 40 | 158 | 0.0 | 0.0 | 0.00 | 0.02 | 0.00 | 96 | 994.8 |
| 20260510150804 | 40 | 158 | 0.0 | 0.0 | 0.00 | 0.02 | 0.00 | 96 | 994.8 |
| 20260510150304 | 39 | 158 | 0.0 | 0.0 | 0.00 | 0.03 | 0.00 | 96 | 994.8 |
| 20260510145804 | 39 | 158 | 0.0 | 0.0 | 0.00 | 0.03 | 0.00 | 96 | 994.8 |
| 20260510145306 | 39 | 158 | 0.0 | 0.0 | 0.00 | 0.03 | 0.00 | 96 | 994.8 |
| 20260510144804 | 39 | 158 | 0.0 | 0.0 | 0.00 | 0.03 | 0.00 | 96 | 994.8 |
| 20260510144304 | 39 | 158 | 0.0 | 0.0 | 0.00 | 0.04 | 0.00 | 96 | 994.7 |
| 20260510143804 | 39 | 158 | 0.0 | 0.0 | 0.00 | 0.04 | 0.00 | 96 | 994.6 |
| 20260510143304 | 39 | 158 | 1.0 | 2.0 | 0.00 | 0.04 | 0.00 | 96 | 994.7 |
| 20260510142804 | 39 | 42 | 0.0 | 0.0 | 0.00 | 0.04 | 0.00 | 96 | 994.7 |
| 20260510142306 | 39 | 42 | 0.0 | 0.0 | 0.00 | 0.05 | 0.00 | 96 | 994.6 |
| 20260510141804 | 39 | 42 | 0.0 | 0.0 | 0.00 | 0.05 | 0.00 | 96 | 994.6 |
| 20260510141304 | 39 | 42 | 0.0 | 0.0 | 0.00 | 0.05 | 0.00 | 96 | 994.7 |
| 20260510140804 | 39 | 42 | 0.0 | 0.0 | 0.00 | 0.06 | 0.00 | 96 | 994.7 |
| 20260510140304 | 40 | 42 | 0.0 | 0.0 | 0.00 | 0.06 | 0.00 | 96 | 994.7 |
| 20260510135804 | 40 | 42 | 0.0 | 0.0 | 0.00 | 0.07 | 0.00 | 96 | 994.7 |
| 20260510135306 | 40 | 42 | 0.0 | 0.0 | 0.00 | 0.08 | 0.00 | 96 | 994.6 |
| 20260510124304 | 40 | 353 | 0.0 | 1.0 | 0.00 | 0.13 | 0.00 | 95 | 994.5 |
| 20260510123804 | 40 | 352 | 1.0 | 2.0 | 0.00 | 0.14 | 0.00 | 95 | 994.5 |
| 20260510123304 | 40 | 2 | 2.0 | 2.0 | 0.00 | 0.14 | 0.00 | 95 | 994.5 |
| 20260510122804 | 40 | 24 | 0.0 | 2.0 | 0.00 | 0.15 | 0.00 | 95 | 994.5 |
| 20260510122306 | 40 | 10 | 0.0 | 0.0 | 0.00 | 0.15 | 0.00 | 95 | 994.4 |
| 20260510121804 | 40 | 10 | 0.0 | 0.0 | 0.00 | 0.15 | 0.00 | 95 | 994.4 |
| 20260510121304 | 40 | 10 | 0.0 | 0.0 | 0.00 | 0.16 | 0.00 | 95 | 994.4 |
| 20260510120804 | 40 | 10 | 0.0 | 0.0 | 0.00 | 0.16 | 0.00 | 95 | 994.4 |
| 20260510120304 | 40 | 7 | 0.0 | 0.0 | 0.00 | 0.16 | 0.00 | 95 | 994.3 |
| 20260510115804 | 40 | 7 | 0.0 | 0.0 | 0.00 | 0.16 | 0.00 | 95 | 994.3 |
| 20260510115306 | 40 | 7 | 0.0 | 0.0 | 0.00 | 0.17 | 0.00 | 95 | 994.3 |
| 20260510114804 | 40 | 7 | 0.0 | 0.0 | 0.00 | 0.17 | 0.00 | 95 | 994.3 |
| 20260510114305 | 40 | 7 | 0.0 | 1.0 | 0.00 | 0.17 | 0.00 | 95 | 994.3 |
| 20260510113804 | 40 | 19 | 1.0 | 2.0 | 0.00 | 0.17 | 0.00 | 95 | 994.4 |
| 20260510113303 | 40 | 130 | 0.0 | 0.0 | 0.00 | 0.18 | 0.00 | 95 | 994.3 |
| 20260510112803 | 40 | 130 | 0.0 | 0.0 | 0.00 | 0.18 | 0.00 | 95 | 994.4 |
| 20260510112305 | 40 | 130 | 0.0 | 0.0 | 0.00 | 0.18 | 0.00 | 95 | 994.4 |
| 20260510111804 | 40 | 130 | 0.0 | 0.0 | 0.00 | 0.18 | 0.00 | 95 | 994.3 |
| 20260510111303 | 40 | 130 | 0.0 | 0.0 | 0.00 | 0.18 | 0.00 | 95 | 994.4 |
| 20260510110804 | 40 | 130 | 0.0 | 0.0 | 0.00 | 0.19 | 0.00 | 95 | 994.4 |
| 20260510110304 | 40 | 130 | 0.0 | 0.0 | 0.00 | 0.19 | 0.00 | 95 | 994.3 |
| 20260510105804 | 40 | 130 | 0.0 | 0.0 | 0.00 | 0.19 | 0.00 | 95 | 994.3 |
| 20260510105306 | 41 | 130 | 1.0 | 1.0 | 0.00 | 0.19 | 0.00 | 95 | 994.4 |
| 20260510104803 | 41 | 148 | 0.0 | 0.0 | 0.00 | 0.20 | 0.00 | 94 | 994.3 |
| 20260510104304 | 41 | 148 | 0.0 | 0.0 | 0.00 | 0.20 | 0.00 | 94 | 994.3 |
| 20260510093304 | 41 | 2 | 2.0 | 2.0 | 0.00 | 0.23 | 0.00 | 93 | 994.2 |
| 20260510092804 | 41 | 10 | 3.0 | 5.0 | 0.00 | 0.23 | 0.00 | 93 | 994.2 |
| 20260510092306 | 41 | 22 | 2.0 | 5.0 | 0.00 | 0.24 | 0.00 | 93 | 994.2 |
| 20260510091804 | 41 | 281 | 0.0 | 2.0 | 0.00 | 0.24 | 0.00 | 93 | 994.2 |
| 20260510091305 | 41 | 329 | 2.0 | 2.0 | 0.00 | 0.24 | 0.00 | 93 | 994.0 |
| 20260510090804 | 41 | 208 | 0.0 | 0.0 | 0.00 | 0.24 | 0.00 | 93 | 994.2 |
| 20260510090304 | 41 | 208 | 0.0 | 0.0 | 0.00 | 0.25 | 0.00 | 93 | 994.1 |
| 20260510085804 | 42 | 208 | 0.0 | 1.0 | 0.00 | 0.25 | 0.00 | 93 | 994.1 |
| 20260510085306 | 42 | 237 | 0.0 | 1.0 | 0.00 | 0.26 | 0.00 | 92 | 994.2 |
| 20260510084805 | 42 | 226 | 0.0 | 0.0 | 0.00 | 0.26 | 0.00 | 92 | 994.1 |
| 20260510084305 | 42 | 226 | 0.0 | 0.0 | 0.00 | 0.26 | 0.00 | 92 | 994.2 |
| 20260510083805 | 42 | 226 | 0.0 | 0.0 | 0.00 | 0.26 | 0.00 | 92 | 994.1 |
| 20260510083304 | 42 | 226 | 0.0 | 0.0 | 0.00 | 0.27 | 0.00 | 92 | 994.1 |
| 20260510082804 | 42 | 226 | 0.0 | 0.0 | 0.00 | 0.27 | 0.00 | 92 | 994.1 |
| 20260510082306 | 42 | 226 | 0.0 | 0.0 | 0.00 | 0.27 | 0.00 | 92 | 994.2 |
| 20260510081804 | 42 | 226 | 0.0 | 0.0 | 0.00 | 0.28 | 0.00 | 92 | 994.1 |
| 20260510081304 | 42 | 226 | 1.0 | 1.0 | 0.00 | 0.28 | 0.00 | 92 | 993.9 |
| 20260510080804 | 42 | 185 | 0.0 | 0.0 | 0.00 | 0.29 | 0.00 | 92 | 994.0 |
| 20260510080305 | 42 | 185 | 1.0 | 2.0 | 0.00 | 0.29 | 0.00 | 92 | 994.1 |
| 20260510075803 | 42 | 295 | 0.0 | 0.0 | 0.00 | 0.29 | 0.29 | 91 | 994.1 |
| 20260510075306 | 42 | 295 | 0.0 | 1.0 | 0.00 | 0.29 | 0.29 | 91 | 994.1 |
| 20260510074803 | 42 | 291 | 0.0 | 1.0 | 0.00 | 0.29 | 0.29 | 91 | 994.1 |
| 20260510074304 | 42 | 291 | 1.0 | 3.0 | 0.00 | 0.30 | 0.29 | 91 | 994.1 |
| 20260510073804 | 43 | 342 | 2.0 | 3.0 | 0.00 | 0.30 | 0.29 | 91 | 994.0 |
| 20260510073304 | 43 | 287 | 0.0 | 2.0 | 0.00 | 0.30 | 0.29 | 90 | 994.0 |
| 20260510072804 | 43 | 356 | 1.0 | 3.0 | 0.00 | 0.31 | 0.29 | 90 | 994.0 |
| 20260510072306 | 43 | 341 | 3.0 | 5.0 | 0.00 | 0.31 | 0.29 | 90 | 993.9 |
| 20260510071804 | 43 | 268 | 0.0 | 0.0 | 0.00 | 0.31 | 0.29 | 90 | 993.8 |
| 20260510071304 | 43 | 268 | 0.0 | 0.0 | 0.00 | 0.31 | 0.29 | 90 | 993.9 |
| 20260510070804 | 43 | 268 | 0.0 | 0.0 | 0.00 | 0.31 | 0.29 | 90 | 993.9 |
| 20260510070305 | 43 | 268 | 0.0 | 0.0 | 0.00 | 0.32 | 0.29 | 90 | 993.9 |
| 20260510065804 | 43 | 268 | 0.0 | 0.0 | 0.00 | 0.32 | 0.29 | 90 | 993.8 |
| 20260510065306 | 43 | 268 | 0.0 | 0.0 | 0.00 | 0.32 | 0.29 | 89 | 993.8 |
| 20260510064804 | 43 | 268 | 0.0 | 0.0 | 0.00 | 0.32 | 0.29 | 89 | 993.8 |
| 20260510064304 | 44 | 268 | 0.0 | 0.0 | 0.00 | 0.32 | 0.29 | 89 | 993.7 |
| 20260510063804 | 44 | 268 | 1.0 | 1.0 | 0.00 | 0.32 | 0.29 | 89 | 993.7 |
| 20260510063304 | 44 | 272 | 0.0 | 2.0 | 0.00 | 0.33 | 0.29 | 89 | 993.7 |
| 20260510062804 | 44 | 290 | 1.0 | 2.0 | 0.00 | 0.33 | 0.29 | 89 | 993.6 |
| 20260510051804 | 46 | 298 | 1.0 | 3.0 | 0.00 | 0.36 | 0.29 | 86 | 993.1 |
| 20260510051304 | 46 | 269 | 1.0 | 3.0 | 0.00 | 0.36 | 0.29 | 86 | 993.0 |
| 20260510050803 | 46 | 309 | 1.0 | 3.0 | 0.00 | 0.36 | 0.29 | 86 | 993.0 |
| 20260510050304 | 46 | 301 | 0.0 | 2.0 | 0.00 | 0.36 | 0.29 | 86 | 993.0 |
| 20260510045804 | 46 | 315 | 1.0 | 2.0 | 0.00 | 0.36 | 0.29 | 86 | 992.9 |
| 20260510045306 | 46 | 253 | 1.0 | 2.0 | 0.00 | 0.36 | 0.29 | 86 | 992.9 |
| 20260510044804 | 46 | 317 | 2.0 | 3.0 | 0.00 | 0.36 | 0.29 | 86 | 992.9 |
| 20260510044304 | 46 | 218 | 1.0 | 2.0 | 0.00 | 0.36 | 0.29 | 86 | 992.9 |
| 20260510043804 | 46 | 261 | 0.0 | 3.0 | 0.00 | 0.36 | 0.29 | 86 | 992.9 |
| 20260510043304 | 46 | 335 | 1.0 | 3.0 | 0.00 | 0.36 | 0.29 | 86 | 992.9 |
| 20260510042804 | 46 | 16 | 0.0 | 1.0 | 0.00 | 0.36 | 0.29 | 86 | 992.9 |
| 20260510042306 | 46 | 14 | 1.0 | 5.0 | 0.00 | 0.36 | 0.29 | 86 | 992.9 |
| 20260510041804 | 46 | 324 | 2.0 | 5.0 | 0.00 | 0.36 | 0.29 | 86 | 992.9 |
| 20260510041304 | 46 | 313 | 2.0 | 3.0 | 0.00 | 0.36 | 0.29 | 86 | 992.7 |
| 20260510040804 | 46 | 298 | 0.0 | 3.0 | 0.00 | 0.36 | 0.29 | 86 | 992.9 |
| 20260510040303 | 46 | 340 | 3.0 | 5.0 | 0.00 | 0.36 | 0.29 | 86 | 992.8 |
| 20260510035804 | 46 | 3 | 1.0 | 2.0 | 0.00 | 0.36 | 0.29 | 86 | 992.9 |
| 20260510035306 | 46 | 319 | 2.0 | 3.0 | 0.00 | 0.36 | 0.29 | 86 | 992.8 |
| 20260510034804 | 46 | 316 | 2.0 | 3.0 | 0.00 | 0.36 | 0.29 | 86 | 992.9 |
| 20260510034304 | 46 | 308 | 1.0 | 2.0 | 0.00 | 0.36 | 0.29 | 86 | 992.9 |
| 20260510033804 | 46 | 343 | 2.0 | 5.0 | 0.00 | 0.36 | 0.29 | 86 | 992.8 |
| 20260510033304 | 46 | 282 | 1.0 | 3.0 | 0.00 | 0.36 | 0.29 | 86 | 992.8 |
| 20260510032804 | 46 | 317 | 2.0 | 3.0 | 0.00 | 0.36 | 0.29 | 86 | 992.7 |
| 20260510032306 | 47 | 312 | 2.0 | 6.0 | 0.00 | 0.36 | 0.29 | 86 | 992.7 |
| 20260510031804 | 47 | 348 | 3.0 | 6.0 | 0.00 | 0.36 | 0.29 | 86 | 992.7 |
| 20260510031304 | 47 | 309 | 2.0 | 5.0 | 0.00 | 0.36 | 0.29 | 85 | 992.7 |
| 20260510020804 | 47 | 356 | 2.0 | 5.0 | 0.00 | 0.36 | 0.29 | 86 | 992.9 |
| 20260510020305 | 47 | 348 | 2.0 | 5.0 | 0.00 | 0.36 | 0.29 | 86 | 992.9 |
| 20260510015805 | 47 | 346 | 3.0 | 5.0 | 0.00 | 0.36 | 0.29 | 86 | 992.8 |
| 20260510015306 | 47 | 288 | 1.0 | 3.0 | 0.00 | 0.36 | 0.29 | 86 | 992.9 |
| 20260510014804 | 47 | 298 | 1.0 | 3.0 | 0.00 | 0.36 | 0.29 | 86 | 992.9 |
| 20260510014304 | 47 | 304 | 3.0 | 7.0 | 0.00 | 0.36 | 0.29 | 86 | 992.8 |
| 20260510013804 | 47 | 334 | 2.0 | 5.0 | 0.00 | 0.36 | 0.29 | 86 | 992.8 |
| 20260510013304 | 47 | 48 | 1.0 | 2.0 | 0.00 | 0.36 | 0.29 | 86 | 992.8 |
| 20260510012804 | 47 | 36 | 1.0 | 5.0 | 0.00 | 0.36 | 0.29 | 87 | 992.8 |
| 20260510012307 | 47 | 332 | 3.0 | 6.0 | 0.00 | 0.36 | 0.29 | 87 | 992.8 |
| 20260510011804 | 46 | 10 | 1.0 | 3.0 | 0.00 | 0.36 | 0.29 | 87 | 992.8 |
| 20260510011304 | 46 | 274 | 0.0 | 2.0 | 0.00 | 0.36 | 0.29 | 88 | 992.8 |
| 20260510010304 | 46 | 328 | 3.0 | 6.0 | 0.00 | 0.36 | 0.29 | 88 | 992.8 |
| 20260510005804 | 46 | 354 | 5.0 | 6.0 | 0.00 | 0.36 | 0.29 | 88 | 992.8 |
| 20260510005306 | 46 | 121 | 0.0 | 2.0 | 0.00 | 0.36 | 0.29 | 88 | 992.9 |
| 20260510004804 | 46 | 308 | 2.0 | 5.0 | 0.00 | 0.36 | 0.29 | 88 | 992.9 |
| 20260510004304 | 46 | 331 | 2.0 | 5.0 | 0.00 | 0.36 | 0.29 | 89 | 992.9 |
| 20260510003803 | 45 | 307 | 0.0 | 5.0 | 0.00 | 0.36 | 0.29 | 89 | 992.9 |
| 20260510003304 | 45 | 299 | 1.0 | 2.0 | 0.00 | 0.36 | 0.29 | 89 | 993.0 |
| 20260510002804 | 45 | 283 | 1.0 | 2.0 | 0.00 | 0.36 | 0.29 | 89 | 993.0 |
| 20260510002306 | 45 | 13 | 2.0 | 3.0 | 0.00 | 0.36 | 0.29 | 89 | 992.9 |
| 20260510001804 | 45 | 349 | 2.0 | 5.0 | 0.00 | 0.36 | 0.29 | 89 | 993.0 |
| 20260510001304 | 45 | 334 | 4.0 | 6.0 | 0.00 | 0.36 | 0.29 | 89 | 993.0 |
| 20260510000804 | 44 | 349 | 4.0 | 7.0 | 0.00 | 0.36 | 0.29 | 89 | 993.0 |
| 20260510000304 | 44 | 339 | 2.0 | 5.0 | 0.00 | 0.36 | 0.29 | 89 | 993.0 |
| 20260509235804 | 44 | 343 | 2.0 | 5.0 | 0.00 | 0.36 | 0.29 | 89 | 993.0 |
| 20260509235307 | 44 | 358 | 4.0 | 8.0 | 0.00 | 0.36 | 0.29 | 89 | 992.8 |
| 20260509234804 | 45 | 330 | 3.0 | 9.0 | 0.00 | 0.36 | 0.29 | 89 | 992.9 |
| 20260509234305 | 45 | 337 | 3.0 | 6.0 | 0.00 | 0.36 | 0.29 | 89 | 992.9 |
| 20260509233804 | 45 | 320 | 3.0 | 6.0 | 0.00 | 0.36 | 0.29 | 89 | 992.9 |
| 20260509233304 | 45 | 310 | 3.0 | 5.0 | 0.00 | 0.36 | 0.29 | 89 | 992.8 |
| 20260509232804 | 44 | 62 | 4.0 | 6.0 | 0.00 | 0.36 | 0.29 | 90 | 992.8 |
| 20260509232306 | 44 | 51 | 1.0 | 3.0 | 0.00 | 0.36 | 0.29 | 90 | 992.8 |
| 20260509231805 | 44 | 6 | 3.0 | 6.0 | 0.00 | 0.36 | 0.29 | 90 | 992.7 |
| 20260509231304 | 44 | 18 | 0.0 | 3.0 | 0.00 | 0.36 | 0.29 | 90 | 992.8 |
| 20260509230805 | 44 | 17 | 2.0 | 5.0 | 0.00 | 0.36 | 0.29 | 91 | 992.8 |
| 20260509230304 | 43 | 32 | 0.0 | 2.0 | 0.00 | 0.36 | 0.29 | 91 | 992.8 |
| 20260509225804 | 43 | 35 | 3.0 | 5.0 | 0.00 | 0.36 | 0.29 | 91 | 993.0 |
| 20260509225306 | 43 | 32 | 2.0 | 5.0 | 0.00 | 0.36 | 0.29 | 91 | 992.9 |
| 20260509224804 | 43 | 91 | 0.0 | 2.0 | 0.00 | 0.36 | 0.29 | 92 | 993.0 |
| 20260509224305 | 43 | 17 | 2.0 | 3.0 | 0.00 | 0.36 | 0.29 | 92 | 993.0 |
| 20260509223804 | 43 | 61 | 1.0 | 5.0 | 0.00 | 0.36 | 0.29 | 92 | 993.1 |
| 20260509223304 | 43 | 94 | 2.0 | 5.0 | 0.00 | 0.36 | 0.29 | 92 | 993.0 |
| 20260509222804 | 43 | 46 | 4.0 | 7.0 | 0.00 | 0.36 | 0.29 | 92 | 992.9 |
| 20260509222307 | 43 | 62 | 2.0 | 5.0 | 0.00 | 0.36 | 0.29 | 92 | 992.9 |
| 20260509221804 | 42 | 39 | 2.0 | 3.0 | 0.00 | 0.36 | 0.29 | 92 | 993.0 |
| 20260509221304 | 42 | 1 | 3.0 | 5.0 | 0.00 | 0.36 | 0.29 | 92 | 992.8 |
| 20260509220804 | 42 | 59 | 3.0 | 6.0 | 0.00 | 0.36 | 0.29 | 93 | 992.9 |
| 20260509220305 | 42 | 50 | 3.0 | 6.0 | 0.00 | 0.36 | 0.29 | 93 | 992.9 |
| 20260509215804 | 42 | 3 | 4.0 | 6.0 | 0.00 | 0.36 | 0.29 | 93 | 993.0 |
| 20260509215306 | 42 | 61 | 2.0 | 5.0 | 0.00 | 0.36 | 0.29 | 94 | 992.9 |
| 20260509214804 | 41 | 52 | 3.0 | 6.0 | 0.00 | 0.36 | 0.29 | 94 | 992.9 |
| 20260509214304 | 42 | 8 | 3.0 | 6.0 | 0.00 | 0.36 | 0.29 | 94 | 992.9 |
| 20260509213804 | 42 | 12 | 3.0 | 5.0 | 0.00 | 0.36 | 0.29 | 94 | 992.9 |
| 20260509213305 | 42 | 33 | 5.0 | 6.0 | 0.00 | 0.36 | 0.29 | 94 | 992.8 |
| 20260509212804 | 41 | 49 | 2.0 | 5.0 | 0.00 | 0.36 | 0.29 | 94 | 992.8 |
| 20260509212306 | 41 | 80 | 3.0 | 5.0 | 0.00 | 0.36 | 0.29 | 94 | 992.8 |
| 20260509211804 | 41 | 29 | 3.0 | 6.0 | 0.00 | 0.36 | 0.29 | 95 | 992.7 |
| 20260509211304 | 41 | 42 | 2.0 | 6.0 | 0.00 | 0.36 | 0.29 | 95 | 992.8 |
| 20260509210804 | 41 | 2 | 3.0 | 7.0 | 0.00 | 0.36 | 0.29 | 95 | 992.7 |
| 20260509210304 | 41 | 17 | 2.0 | 6.0 | 0.00 | 0.36 | 0.29 | 95 | 992.8 |
| 20260509205804 | 41 | 0 | 3.0 | 6.0 | 0.00 | 0.36 | 0.29 | 95 | 992.8 |
| 20260509204804 | 41 | 322 | 2.0 | 5.0 | 0.00 | 0.36 | 0.29 | 95 | 992.8 |
| 20260509204304 | 41 | 335 | 2.0 | 5.0 | 0.00 | 0.36 | 0.29 | 95 | 992.8 |
| 20260509203804 | 40 | 347 | 2.0 | 6.0 | 0.00 | 0.36 | 0.29 | 95 | 992.8 |
| 20260509203304 | 40 | 358 | 2.0 | 5.0 | 0.00 | 0.36 | 0.29 | 96 | 992.8 |
| 20260509202804 | 40 | 355 | 3.0 | 6.0 | 0.00 | 0.36 | 0.29 | 96 | 992.7 |
| 20260509202306 | 40 | 347 | 2.0 | 3.0 | 0.00 | 0.36 | 0.29 | 96 | 992.8 |
| 20260509201804 | 40 | 342 | 2.0 | 5.0 | 0.00 | 0.36 | 0.29 | 96 | 992.8 |
| 20260509201304 | 40 | 344 | 4.0 | 6.0 | 0.00 | 0.36 | 0.29 | 96 | 992.8 |
| 20260509200804 | 40 | 19 | 2.0 | 3.0 | 0.00 | 0.36 | 0.29 | 96 | 992.7 |
| 20260509200304 | 39 | 339 | 2.0 | 6.0 | 0.00 | 0.36 | 0.29 | 96 | 992.8 |
| 20260509195804 | 39 | 341 | 1.0 | 6.0 | 0.00 | 0.36 | 0.29 | 96 | 992.8 |
| 20260509195306 | 39 | 338 | 3.0 | 5.0 | 0.00 | 0.36 | 0.29 | 96 | 992.8 |
| 20260509194804 | 39 | 322 | 1.0 | 5.0 | 0.00 | 0.36 | 0.29 | 96 | 992.8 |
| 20260509194304 | 39 | 337 | 1.0 | 5.0 | 0.00 | 0.36 | 0.29 | 96 | 992.7 |
| 20260509193804 | 39 | 319 | 2.0 | 5.0 | 0.00 | 0.36 | 0.29 | 96 | 992.7 |
| 20260509193304 | 39 | 350 | 2.0 | 5.0 | 0.00 | 0.36 | 0.29 | 96 | 992.8 |
| 20260509192804 | 39 | 335 | 4.0 | 6.0 | 0.00 | 0.36 | 0.29 | 96 | 992.6 |
| 20260509192306 | 39 | 338 | 3.0 | 5.0 | 0.00 | 0.36 | 0.29 | 96 | 992.7 |
| 20260509191804 | 39 | 338 | 3.0 | 5.0 | 0.00 | 0.36 | 0.29 | 96 | 992.6 |
| 20260509191304 | 39 | 346 | 1.0 | 5.0 | 0.00 | 0.36 | 0.29 | 96 | 992.7 |
| 20260509190804 | 39 | 336 | 3.0 | 6.0 | 0.00 | 0.36 | 0.29 | 96 | 992.7 |
| 20260509190304 | 38 | 3 | 0.0 | 5.0 | 0.00 | 0.36 | 0.29 | 96 | 992.8 |
| 20260509185804 | 38 | 311 | 2.0 | 5.0 | 0.00 | 0.36 | 0.29 | 96 | 992.7 |
| 20260509185306 | 38 | 356 | 1.0 | 5.0 | 0.00 | 0.36 | 0.29 | 96 | 992.7 |
| 20260509184804 | 38 | 333 | 3.0 | 6.0 | 0.00 | 0.36 | 0.29 | 96 | 992.7 |
| 20260509184304 | 38 | 328 | 3.0 | 5.0 | 0.00 | 0.36 | 0.29 | 96 | 992.8 |
| 20260509183804 | 38 | 324 | 2.0 | 3.0 | 0.00 | 0.36 | 0.29 | 96 | 992.8 |
| 20260509183304 | 38 | 6 | 3.0 | 5.0 | 0.01 | 0.36 | 0.29 | 96 | 992.8 |
| 20260509182804 | 38 | 334 | 2.0 | 5.0 | 0.01 | 0.36 | 0.29 | 96 | 992.8 |
| 20260509182306 | 38 | 339 | 2.0 | 6.0 | 0.01 | 0.36 | 0.29 | 96 | 992.8 |
| 20260509181804 | 38 | 334 | 4.0 | 5.0 | 0.01 | 0.36 | 0.29 | 96 | 992.8 |
| 20260509181304 | 38 | 347 | 2.0 | 3.0 | 0.01 | 0.36 | 0.29 | 96 | 992.7 |
| 20260509180803 | 38 | 328 | 3.0 | 5.0 | 0.01 | 0.36 | 0.29 | 96 | 992.7 |
| 20260509180304 | 38 | 2 | 2.0 | 5.0 | 0.01 | 0.36 | 0.29 | 96 | 992.7 |
| 20260509175804 | 38 | 6 | 2.0 | 2.0 | 0.01 | 0.36 | 0.29 | 96 | 992.6 |
| 20260509175306 | 38 | 330 | 1.0 | 2.0 | 0.01 | 0.36 | 0.29 | 96 | 992.7 |
| 20260509174804 | 38 | 346 | 2.0 | 5.0 | 0.01 | 0.36 | 0.29 | 96 | 992.7 |
| 20260509174304 | 38 | 349 | 3.0 | 5.0 | 0.01 | 0.36 | 0.29 | 96 | 992.7 |
| 20260509173804 | 37 | 351 | 2.0 | 6.0 | 0.01 | 0.36 | 0.29 | 96 | 992.7 |
| 20260509173304 | 37 | 350 | 0.0 | 2.0 | 0.00 | 0.35 | 0.28 | 96 | 992.7 |
| 20260509172804 | 37 | 10 | 2.0 | 5.0 | 0.00 | 0.35 | 0.28 | 96 | 992.7 |
| 20260509172306 | 37 | 4 | 2.0 | 5.0 | 0.00 | 0.35 | 0.28 | 95 | 992.8 |
| 20260509171804 | 37 | 0 | 1.0 | 2.0 | 0.00 | 0.35 | 0.28 | 96 | 992.8 |
| 20260509171304 | 37 | 28 | 1.0 | 2.0 | 0.00 | 0.35 | 0.28 | 96 | 993.0 |
| 20260509170805 | 37 | 76 | 1.0 | 2.0 | 0.00 | 0.35 | 0.28 | 96 | 993.0 |
| 20260509170304 | 37 | 9 | 1.0 | 2.0 | 0.01 | 0.35 | 0.28 | 95 | 993.0 |
| 20260509165804 | 37 | 50 | 0.0 | 1.0 | 0.01 | 0.35 | 0.28 | 95 | 993.1 |
| 20260509165306 | 37 | 22 | 0.0 | 2.0 | 0.01 | 0.35 | 0.28 | 95 | 993.2 |
| 20260509164804 | 37 | 3 | 0.0 | 2.0 | 0.01 | 0.35 | 0.28 | 95 | 993.1 |
| 20260509164304 | 37 | 42 | 1.0 | 2.0 | 0.01 | 0.35 | 0.28 | 95 | 993.1 |
| 20260509163804 | 37 | 28 | 0.0 | 1.0 | 0.01 | 0.35 | 0.28 | 95 | 993.2 |